[[{"header":{"parameterUnit":"m.s-1","parameterCategory":1,"la1":30.2991,"la2":30.254,"lo1":-89.0895,"lo2":-89.0444,"dy":0.0017,"dx":0.0017,"nx":28,"ny":28,"refTime":"2025-01-16T09:00:00:Z","depth":0,"parameterNumber":2,"parameterNumberName":"U-component_of_WINDS"},"data":[0,0,0,0,0,0,0,0,0,0,0,0,0,0,0,0,0,0,0,0,0,0,0,0,0,0,0,0,0,0,0,0,0,0,0,0,0,0,0,0,0,0,0,0,0,0,0,0,0,0,0,0,0,0,0,0,0,0,-0.312,-0.312,0,-0.312,-0.312,-0.312,-0.3088,-0.3088,-0.3087,-0.3086,-0.3089,-0.309,-0.3091,0,0,0,0,0,0,0,0,0,0,0,0,0,-0.3094,-0.3094,-0.312,-0.312,-0.312,-0.312,-0.312,-0.312,-0.3089,-0.3088,-0.3087,-0.3086,-0.3089,-0.309,-0.3091,0,0,0,0,0,0,0,0,0,0,0,0,0,-0.3101,-0.3094,-0.312,-0.3104,-0.3103,-0.312,-0.312,-0.312,-0.3089,-0.3088,-0.3086,-0.3085,-0.3088,-0.309,-0.3091,-0.3125,0,0,-0.3095,-0.3095,0,0,0,0,0,0,0,0,-0.31,-0.3102,-0.3107,-0.3105,-0.3104,-0.3103,-0.3112,-0.3122,-0.3089,-0.3094,-0.3086,-0.3084,-0.3095,-0.3095,-0.3098,-0.3125,-0.3125,-0.3095,-0.3096,-0.3096,-0.3097,0,0,0,0,0,0,0,-0.31,-0.3102,-0.312,-0.3107,-0.3105,-0.3098,-0.3097,-0.3114,-0.3102,-0.3094,-0.3091,-0.3092,-0.3094,-0.3097,-0.3098,-0.3125,-0.3095,-0.3096,-0.3097,-0.3097,-0.3178,-0.3179,0,0,0,0,0,0,-0.3101,-0.3101,-0.312,-0.312,-0.3099,-0.3099,-0.3099,-0.3105,-0.3101,-0.31,-0.3093,-0.309,-0.3096,-0.3097,-0.3098,-0.3137,-0.3096,-0.3098,-0.3098,-0.3177,-0.3178,-0.318,0,0,0,0,0,0,-0.3101,-0.3103,-0.312,-0.311,-0.3112,-0.3101,-0.3108,-0.3105,-0.3109,-0.3101,-0.3099,-0.3098,-0.3095,-0.3096,-0.3118,-0.3137,-0.3098,-0.3099,-0.3175,-0.3177,-0.3179,-0.3216,0,0,0,0,0,0,-0.31,-0.3103,-0.3116,-0.3111,-0.3112,-0.314,-0.3109,-0.3106,-0.3111,-0.3107,-0.3106,-0.3104,-0.3094,-0.3116,-0.3119,-0.3138,-0.31,-0.3173,-0.3176,-0.3178,-0.3213,-0.3219,-0.3224,0,0,0,0,0,-0.3099,-0.3127,-0.3117,-0.3119,-0.3128,-0.3141,-0.3142,-0.3129,-0.3112,-0.3125,-0.312,-0.3104,-0.3134,-0.3119,-0.3122,-0.3141,-0.3172,-0.3175,-0.3178,-0.3211,-0.3218,-0.3224,0,0,0,0,0,0,-0.3136,-0.3126,-0.3115,-0.3141,-0.3142,-0.3135,-0.3151,-0.3137,-0.3144,-0.314,-0.3124,-0.3124,-0.3148,-0.3147,-0.313,-0.3174,-0.315,-0.3154,-0.3174,-0.3181,-0.3186,-0.3187,-0.3101,0,0,0,0,0,-0.3147,-0.3158,-0.3149,-0.3173,-0.3174,-0.3162,-0.3168,-0.3157,-0.3158,-0.3159,-0.3155,-0.3157,-0.3166,-0.3173,-0.3182,-0.3212,-0.3212,-0.3227,-0.3233,-0.3237,-0.3241,-0.3257,-0.3264,-0.319,-0.319,-0.319,0,0,-0.317,-0.3166,-0.3174,-0.318,-0.318,-0.3192,-0.3163,-0.3177,-0.3186,-0.3161,-0.3181,-0.3178,-0.3179,-0.3205,-0.3216,-0.3205,-0.3261,-0.3241,-0.3245,-0.3246,-0.3261,-0.3268,-0.3274,-0.3192,-0.3192,-0.3191,0,0,-0.3219,-0.3217,-0.3236,-0.3236,-0.3235,-0.3227,-0.3231,-0.3227,-0.3224,-0.3243,-0.3224,-0.3234,-0.3252,-0.3253,-0.3256,-0.3303,-0.3289,-0.3306,-0.3336,-0.3351,-0.3357,-0.3362,-0.338,-0.3386,-0.331,-0.331,-0.331,0,-0.3248,-0.3265,-0.3249,-0.3264,-0.3267,-0.3243,-0.3263,-0.3264,-0.3266,-0.3269,-0.3255,-0.3276,-0.3275,-0.3301,-0.3312,-0.3315,-0.332,-0.3307,-0.3358,-0.3363,-0.3367,-0.3383,-0.339,-0.3312,-0.3312,-0.3312,-0.3311,0,-0.3301,-0.3313,-0.3329,-0.3331,-0.3336,-0.3353,-0.334,-0.3347,-0.3336,-0.3329,-0.3349,-0.3346,-0.3354,-0.3359,-0.3349,-0.3383,-0.3376,-0.336,-0.3337,-0.3377,-0.3392,-0.3398,-0.3315,-0.3314,-0.3314,-0.3313,0,0,-0.3375,-0.3365,-0.3372,-0.3372,-0.3368,-0.3377,-0.3394,-0.34,-0.3406,-0.3408,-0.3422,-0.3436,-0.3421,-0.3424,-0.3413,-0.3427,-0.3465,-0.3409,-0.3409,-0.342,-0.3503,-0.3515,-0.3523,-0.3455,-0.3456,-0.3457,-0.3503,0,-0.3422,-0.3449,-0.3434,-0.3463,-0.3474,-0.345,-0.3464,-0.3464,-0.3458,-0.3466,-0.346,-0.347,-0.3449,-0.3451,-0.3463,-0.3458,-0.3481,-0.3454,-0.3468,-0.3469,-0.3469,-0.353,-0.3544,-0.3588,-0.3508,-0.3509,-0.351,0,-0.3482,-0.3485,-0.3515,-0.3508,-0.3512,-0.3525,-0.3529,-0.3537,-0.3536,-0.353,-0.3533,-0.3519,-0.3535,-0.351,-0.3532,-0.3514,-0.3518,-0.3516,-0.3517,-0.3519,-0.3493,-0.3535,-0.3601,-0.3608,-0.3519,-0.3518,-0.3518,0,-0.3533,-0.3544,-0.3564,-0.3564,-0.3557,-0.3566,-0.3564,-0.3561,-0.3565,-0.3569,-0.3572,-0.3577,-0.3581,-0.3585,-0.3573,-0.3556,-0.3597,-0.3571,-0.3593,-0.3594,-0.3604,-0.3604,-0.3673,-0.3605,-0.3605,-0.3605,-0.3605,0,-0.3588,-0.3607,-0.3586,-0.3598,-0.3619,-0.3601,-0.3623,-0.3618,-0.3615,-0.3626,-0.3606,-0.3617,-0.3599,-0.3609,-0.3599,-0.3619,-0.362,-0.3617,-0.3614,-0.3619,-0.362,-0.3623,-0.362,-0.3607,-0.3606,-0.3606,-0.3606,0,-0.365,-0.3636,-0.3655,-0.3646,-0.3644,-0.366,-0.3652,-0.3663,-0.3655,-0.3669,-0.3671,-0.3658,-0.3668,-0.3655,-0.3664,-0.3658,-0.3684,-0.3677,-0.3685,-0.3683,-0.3706,-0.3704,-0.3781,-0.379,-0.3715,-0.3716,-0.3717,0,-0.3686,-0.37,-0.3692,-0.3697,-0.3695,-0.3704,-0.3708,-0.3691,-0.3696,-0.3694,-0.3706,-0.3713,-0.3718,-0.3734,-0.3727,-0.3733,-0.3726,-0.3752,-0.3727,-0.3731,-0.3727,-0.3727,-0.3728,-0.3758,-0.3759,-0.376,-0.376,0,-0.3753,-0.3745,-0.3751,-0.3754,-0.3759,-0.3761,-0.3761,-0.3767,-0.3749,-0.3755,-0.3764,-0.3768,-0.3776,-0.3784,-0.3788,-0.3785,-0.377,-0.3768,-0.3773,-0.3779,-0.3783,-0.3782,-0.37,-0.3767,-0.3766,-0.3765,-0.3765,-0.3765,-0.3803,-0.3814,-0.381,-0.3817,-0.3815,-0.3816,-0.3825,-0.3817,-0.3824,-0.3829,-0.3818,-0.3829,-0.3827,-0.383,-0.383,-0.3839,-0.3827,-0.3835,-0.3837,-0.384,-0.3843,-0.3781,-0.3839,-0.3839,-0.3839,-0.3839,-0.3838,0,-0.3869,-0.3865,-0.3871,-0.3872,-0.3877,-0.386,-0.386,-0.3866,-0.3876,-0.3874,-0.3879,-0.3889,-0.3896,-0.3888,-0.3893,-0.3902,-0.3895,-0.3904,-0.3904,-0.3904,-0.3853,-0.3848,-0.391,-0.391,-0.391,-0.391,-0.391,-0.391,-0.3904,-0.3922,-0.3914,-0.393,-0.3926,-0.3936,-0.3937,-0.3938,-0.3936,-0.3948,-0.3953,-0.3947,-0.3943,-0.3948,-0.3954,-0.3951,-0.3955,-0.3966,-0.3961,-0.3914,-0.3908,-0.3901,-0.3896,-0.3967,-0.3967,-0.4011,-0.4012,-0.4012]},{"header":{"parameterUnit":"m.s-1","parameterCategory":1,"la1":30.2991,"la2":30.254,"lo1":-89.0895,"lo2":-89.0444,"dy":0.0017,"dx":0.0017,"nx":28,"ny":28,"refTime":"2025-01-16T09:00:00:Z","depth":0,"parameterNumber":3,"parameterNumberName":"V-component_of_WINDS"},"data":[0,0,0,0,0,0,0,0,0,0,0,0,0,0,0,0,0,0,0,0,0,0,0,0,0,0,0,0,0,0,0,0,0,0,0,0,0,0,0,0,0,0,0,0,0,0,0,0,0,0,0,0,0,0,0,0,0,0,-2.7478,-2.7479,0,-2.757,-2.7571,-2.7572,-2.7561,-2.7559,-2.7558,-2.7556,-2.765,-2.7653,-2.7657,0,0,0,0,0,0,0,0,0,0,0,0,0,-2.729,-2.7294,-2.7478,-2.7479,-2.748,-2.757,-2.7571,-2.7572,-2.7561,-2.7559,-2.7557,-2.7556,-2.7648,-2.7653,-2.7657,0,0,0,0,0,0,0,0,0,0,0,0,0,-2.7376,-2.7295,-2.7477,-2.7485,-2.7487,-2.757,-2.7571,-2.7573,-2.7561,-2.7559,-2.7557,-2.7555,-2.7647,-2.7652,-2.7658,-2.7739,0,0,-2.7676,-2.7678,0,0,0,0,0,0,0,0,-2.7371,-2.7383,-2.7483,-2.7485,-2.7487,-2.7552,-2.7539,-2.7628,-2.7562,-2.7533,-2.7556,-2.7554,-2.7619,-2.7627,-2.7649,-2.7743,-2.7747,-2.7676,-2.768,-2.7682,-2.7684,0,0,0,0,0,0,0,-2.7365,-2.7379,-2.7514,-2.7484,-2.7487,-2.7484,-2.7493,-2.7556,-2.7587,-2.7535,-2.7535,-2.7546,-2.7619,-2.7643,-2.7651,-2.7749,-2.7676,-2.7681,-2.7685,-2.7687,-2.7913,-2.7916,0,0,0,0,0,0,-2.7357,-2.7374,-2.7511,-2.7517,-2.7422,-2.7489,-2.75,-2.7533,-2.7587,-2.7593,-2.7548,-2.7545,-2.7634,-2.7644,-2.7654,-2.7753,-2.7682,-2.7688,-2.7691,-2.7911,-2.7914,-2.7917,0,0,0,0,0,0,-2.7353,-2.737,-2.7507,-2.7445,-2.7463,-2.7494,-2.7532,-2.7536,-2.756,-2.7596,-2.7601,-2.7567,-2.7633,-2.7646,-2.7718,-2.7756,-2.769,-2.7696,-2.7908,-2.7912,-2.7915,-2.795,0,0,0,0,0,0,-2.7348,-2.7368,-2.74,-2.7446,-2.7466,-2.7571,-2.7534,-2.7539,-2.757,-2.7568,-2.7615,-2.7621,-2.7632,-2.7709,-2.7724,-2.7762,-2.77,-2.7905,-2.791,-2.7914,-2.7946,-2.7954,-2.7962,0,0,0,0,0,-2.7341,-2.7406,-2.7402,-2.7418,-2.7506,-2.7573,-2.7584,-2.7596,-2.7573,-2.7605,-2.7628,-2.7619,-2.7749,-2.7717,-2.7733,-2.7774,-2.7902,-2.7908,-2.7914,-2.7942,-2.7953,-2.7962,0,0,0,0,0,0,-2.7363,-2.7412,-2.7408,-2.7489,-2.7527,-2.7571,-2.7611,-2.7607,-2.7652,-2.7648,-2.7661,-2.7671,-2.7744,-2.7766,-2.7729,-2.7855,-2.7822,-2.7832,-2.7838,-2.7849,-2.7857,-2.7851,-2.7705,0,0,0,0,0,-2.7377,-2.7428,-2.7467,-2.7535,-2.7554,-2.7579,-2.7609,-2.7615,-2.7655,-2.767,-2.7698,-2.7737,-2.7786,-2.7818,-2.7866,-2.7948,-2.7958,-2.7984,-2.7992,-2.7999,-2.8007,-2.8052,-2.8064,-2.7935,-2.7935,-2.7935,0,0,-2.7407,-2.744,-2.7471,-2.754,-2.757,-2.7622,-2.7593,-2.7649,-2.7687,-2.7679,-2.7749,-2.7771,-2.7814,-2.7891,-2.7927,-2.7912,-2.8044,-2.8006,-2.8011,-2.8016,-2.8059,-2.8071,-2.8082,-2.7939,-2.7938,-2.7938,0,0,-2.7489,-2.7518,-2.7578,-2.7609,-2.7655,-2.7671,-2.7685,-2.7729,-2.7744,-2.7814,-2.7809,-2.7854,-2.7938,-2.797,-2.7997,-2.8088,-2.8082,-2.8103,-2.8147,-2.8191,-2.8201,-2.821,-2.8243,-2.8255,-2.8111,-2.8111,-2.8111,0,-2.752,-2.7598,-2.761,-2.7666,-2.7697,-2.7691,-2.7752,-2.7781,-2.7839,-2.786,-2.7842,-2.7948,-2.7977,-2.8062,-2.8084,-2.8106,-2.8123,-2.8099,-2.8198,-2.8208,-2.8216,-2.8248,-2.8261,-2.8113,-2.8113,-2.8113,-2.8113,0,-2.7635,-2.7689,-2.7732,-2.7789,-2.7824,-2.7883,-2.7902,-2.7936,-2.7939,-2.7957,-2.8028,-2.8062,-2.8116,-2.8136,-2.8139,-2.8222,-2.8211,-2.8196,-2.8164,-2.8231,-2.8261,-2.8274,-2.8117,-2.8116,-2.8115,-2.8115,0,0,-2.7735,-2.7797,-2.7812,-2.7838,-2.7888,-2.7929,-2.7987,-2.804,-2.8069,-2.8109,-2.8158,-2.8229,-2.8215,-2.8246,-2.8252,-2.829,-2.8361,-2.827,-2.8271,-2.8287,-2.8455,-2.8467,-2.8481,-2.8357,-2.8359,-2.8361,-2.8451,0,-2.7822,-2.7925,-2.7936,-2.8027,-2.8077,-2.8072,-2.8122,-2.8158,-2.8175,-2.822,-2.8239,-2.829,-2.8267,-2.8285,-2.8323,-2.8345,-2.8395,-2.8338,-2.8402,-2.8405,-2.8393,-2.8497,-2.851,-2.8594,-2.8463,-2.8465,-2.8467,0,-2.7938,-2.7982,-2.8078,-2.812,-2.8142,-2.8187,-2.8236,-2.8279,-2.8319,-2.8329,-2.8362,-2.8363,-2.8422,-2.8386,-2.8468,-2.8428,-2.8455,-2.8469,-2.8473,-2.8481,-2.8441,-2.8508,-2.8621,-2.8634,-2.8485,-2.8484,-2.8482,0,-2.8002,-2.8085,-2.8153,-2.8175,-2.8226,-2.8258,-2.828,-2.8318,-2.8349,-2.8392,-2.8412,-2.8461,-2.8488,-2.8525,-2.8539,-2.8512,-2.8619,-2.8585,-2.8629,-2.8629,-2.8654,-2.8652,-2.8774,-2.8669,-2.8668,-2.8668,-2.8668,0,-2.8099,-2.8159,-2.8183,-2.8225,-2.8292,-2.8303,-2.8368,-2.8389,-2.8422,-2.8468,-2.8466,-2.8509,-2.8524,-2.8569,-2.8579,-2.8645,-2.8657,-2.8667,-2.8669,-2.8668,-2.8667,-2.8687,-2.8682,-2.8672,-2.8671,-2.867,-2.867,0,-2.8183,-2.8201,-2.8276,-2.8317,-2.8329,-2.8376,-2.8412,-2.8452,-2.8469,-2.8527,-2.8541,-2.8567,-2.862,-2.8637,-2.8701,-2.8708,-2.8785,-2.8781,-2.8772,-2.8773,-2.8817,-2.8813,-2.8956,-2.8976,-2.8857,-2.8858,-2.8859,0,-2.8244,-2.829,-2.8336,-2.8367,-2.8391,-2.844,-2.8472,-2.8484,-2.8518,-2.8566,-2.86,-2.8653,-2.8696,-2.8781,-2.8805,-2.8854,-2.8852,-2.8899,-2.8859,-2.8857,-2.8854,-2.8852,-2.8857,-2.8907,-2.8908,-2.8909,-2.891,0,-2.8352,-2.8358,-2.8405,-2.8454,-2.8492,-2.8531,-2.8569,-2.8594,-2.8612,-2.8649,-2.8704,-2.8737,-2.8802,-2.8854,-2.8904,-2.8926,-2.8921,-2.8922,-2.8935,-2.8935,-2.8928,-2.8933,-2.8794,-2.8919,-2.8918,-2.8917,-2.8917,-2.8916,-2.8427,-2.8468,-2.8507,-2.8558,-2.8587,-2.8623,-2.8663,-2.8684,-2.873,-2.8785,-2.8789,-2.8848,-2.8885,-2.8951,-2.8976,-2.9021,-2.9008,-2.9027,-2.9032,-2.9037,-2.9041,-2.8919,-2.903,-2.903,-2.903,-2.9029,-2.9029,0,-2.8536,-2.856,-2.8607,-2.866,-2.87,-2.8692,-2.8733,-2.8767,-2.8819,-2.8855,-2.8897,-2.8959,-2.9009,-2.9037,-2.9087,-2.9118,-2.9117,-2.9131,-2.913,-2.9135,-2.9049,-2.9034,-2.9131,-2.9131,-2.9131,-2.9131,-2.9131,-2.9131,-2.8597,-2.8665,-2.8676,-2.8759,-2.8782,-2.8841,-2.8865,-2.8897,-2.8926,-2.8996,-2.9038,-2.9055,-2.9087,-2.914,-2.9185,-2.9192,-2.9211,-2.9226,-2.9232,-2.9151,-2.9141,-2.9131,-2.9116,-2.923,-2.923,-2.9314,-2.9315,-2.9315]}]]